Regional Weather Roundup
Issued by NWS Sioux Falls, SD

Home | Current Version | Previous Version | Text Only | Print | Product List | Glossary On
Versions: 1 2 3 4 5 6 7 8 9 10 11 12 13 14 15 16 17 18 19 20 21 22 23 24 25 26 27 28 29 30 31 32 33 34 35 36 37 38 39 40 41 42 43 44 45 46 47 48 49 50
000
ASUS43 KFSD 281410
RWRFSD

WEATHER ROUNDUP FOR SE SOUTH DAKOTA/SW MINNESOTA/NW IOWA
NATIONAL WEATHER SERVICE SIOUX FALLS SD
800 AM CST SUN DEC 28 2014

NOTE: "FAIR" INDICATES FEW OR NO CLOUDS BELOW 12,000 FEET WITH NO
SIGNIFICANT WEATHER AND OR OBSTRUCTIONS TO VISIBILITY.


SDZ038>040-050-052>070-281500-
SOUTHEAST SOUTH DAKOTA

CITY           SKY/WX    TMP DP  RH WIND       PRES   REMARKS
CHAMBERLAIN    PTCLDY    -1  -4  87 CALM      30.07S
HURON          PTCLDY    -2  -6  83 CALM      30.11R FOG
MADISON        FAIR       1   1 100 N3        30.07R
MITCHELL       CLEAR      5   2  87 W3        30.11R
SIOUX FALLS    PTCLDY    -3  -7  82 CALM      30.09S
WINNER         FAIR       8   2  76 SW7       30.04R WCI  -3
YANKTON          N/A      7   5  92 CALM      30.12R VSB 3/4
$$

MNZ071-072-080-081-089-090-097-098-281500-
SOUTHWEST MINNESOTA

CITY           SKY/WX    TMP DP  RH WIND       PRES   REMARKS
FAIRMONT       CLEAR      9   3  78 W3        30.09S
JACKSON        CLEAR      9   5  85 W5        30.08S WCI   0
LUVERNE        MOCLDY     3  -2  78 CALM      30.10S
MARSHALL       CLEAR      9   5  85 W7        30.10R WCI  -3
MONTEVIDEO     CLOUDY    14  12  92 N5        30.12S WCI   6
PIPESTONE      PTCLDY    -2  -6  84 CALM      30.07R FOG
REDWOOD FALLS  CLEAR      9   6  88 NW7       30.11R WCI  -2
TRACY          CLEAR     14  11  90 W7        30.10R WCI   4
WINDOM         CLEAR      3   1  92 CALM      30.09R
WORTHINGTON    CLEAR      7 N/A N/A W5        30.08R WCI  -2
$$

IAZ001>003-012>014-020>022-031-032-NEZ013-014-SDZ071-281500-
NORTHWEST IOWA

CITY           SKY/WX    TMP DP  RH WIND       PRES   REMARKS
CHEROKEE       PTCLDY     4   3  93 CALM      30.12R
DENISON        PTCLDY    12  10  92 CALM      30.10R
ESTHERVILLE    CLEAR      6   3  87 W7        30.09R WCI  -6
LE MARS        PTCLDY     1   0  92 CALM      30.13R
ORANGE CITY    PTCLDY     7   3  85 CALM      30.09R FOG
SHELDON        PTCLDY     0  -4  85 NE3       30.09R
SIOUX CITY     PTCLDY     6   2  83 E3        30.13R
SPENCER        CLEAR      4   0  83 CALM      30.11R
STORM LAKE     PTCLDY     9   7  92 W5        30.10R WCI   0
$$

ABBREVIATIONS USED IN REMARKS
   TC - TEMPERATURE IN CELSIUS
  WCI - WIND CHILL INDEX
   HX - HEAT INDEX
  VSB - VISIBILITY




USA.gov is the U.S. government's official web portal to all federal, state and local government web resources and services.